Location: *
(50.2903°S, 172.5375°W)
Time: 21:29:33
(UTC+00:00)

Resurs 1-4 Rocket - Pass Details

Date: 27 February 2020
Orbit: 800 x 814 km, 98.6° (Epoch: 09 April)

Event Time Altitude Azimuth Distance (km) Brightness Sun altitude
Exits shadow 13:46:33 14° 246° (WSW) 2,119 4.2 -25.5°
Drops below altitude 10° 13:48:11 10° 229° (SW) 2,416 4.6 -25.3°
Sets 13:51:30 0° 208° (SSW) 3,355 5.7 -25.0°
